Weather History for Grand Canyon, AZ

Change the Weather History Date:

Tuesday, November 12, 2013

  Actual Average Record
Temperature  
Mean Temperature 44 °F -  
Max Temperature 62 °F 50 °F 71 °F (1999)
Min Temperature 25 °F 21 °F 3 °F (2000)
Degree Days  
Heating Degree Days 22    
Moisture  
Dew Point 18 °F    
Average Humidity 36    
Maximum Humidity 63    
Minimum Humidity 20    
Precipitation  
Precipitation 0.00 in - - ()
Sea Level Pressure  
Sea Level Pressure 30.37 in    
Wind  
Wind Speed 8 mph (ENE)    
Max Wind Speed 14 mph    
Max Gust Speed 18 mph    
Visibility 10 miles    
Events      
Averages and records for this station are not official NWS values.
T = Trace of Precipitation, MM = Missing Value Source: NWS Daily Summary

Daily Weather History Graph

Daily Weather History Graph

Search for Another Location

Airport:

Trip Planner

Search our weather history database for the weather conditions in past years. The results will help you decide how hot, cold, wet, or windy it might be!

Date:

Astronomy

Nov. 12, 2013 Rise Set
Actual Time 7:02 AM MST 5:22 PM MST
Civil Twilight 6:35 AM MST 5:50 PM MST
Nautical Twilight 6:04 AM MST 6:20 PM MST
Astronomical Twilight 5:34 AM MST 6:51 PM MST
Moon 2:31 PM MST (11/12) 2:05 AM MST (11/12)
Length of Visible Light 11h 14m
Length of Day
10h 20m
Waxing Gibbous, 77% of the Moon is Illuminated
Nov 12
Waxing Gibbous
Nov 17
Full
Nov 25
Last Quarter
Dec 2
New
Dec 9
First Quarter

Hourly Weather History & Observations

Time (MST) Temp. Windchill Dew Point Humidity Pressure Visibility Wind Dir Wind Speed Gust Speed Precip Events Conditions
12:54 AM 30.0 °F 22.4 °F 16.0 °F 56% 30.34 in 10.0 mi NE 8.1 mph - N/A   Clear
1:54 AM 30.9 °F 22.8 °F 15.1 °F 52% 30.34 in 10.0 mi NE 9.2 mph - N/A   Clear
2:54 AM 25.0 °F 20.7 °F 14.0 °F 63% 30.38 in 10.0 mi NE 3.5 mph - N/A   Clear
3:54 AM 28.9 °F 23.9 °F 15.1 °F 56% 30.36 in 10.0 mi NE 4.6 mph - N/A   Clear
4:54 AM 28.0 °F 22.8 °F 15.1 °F 58% 30.39 in 10.0 mi NNE 4.6 mph - N/A   Clear
5:54 AM 30.0 °F 21.1 °F 16.0 °F 56% 30.42 in 10.0 mi NE 10.4 mph - N/A   Clear
6:54 AM 33.1 °F 26.9 °F 17.1 °F 52% 30.46 in 10.0 mi NE 6.9 mph - N/A   Clear
7:54 AM 37.0 °F 32.4 °F 19.0 °F 48% 30.45 in 10.0 mi ENE 5.8 mph - N/A   Clear
8:54 AM 53.1 °F - 19.9 °F 27% 30.40 in 10.0 mi NE 11.5 mph - N/A   Clear
9:54 AM 57.0 °F - 19.0 °F 23% 30.42 in 10.0 mi ENE 10.4 mph 18.4 mph N/A   Clear
10:54 AM 57.9 °F - 19.0 °F 22% 30.42 in 10.0 mi NE 10.4 mph - N/A   Clear
11:54 AM 62.1 °F - 19.9 °F 20% 30.40 in 10.0 mi NE 13.8 mph - N/A   Clear
12:54 PM 57.0 °F - 19.0 °F 23% 30.39 in 10.0 mi ENE 12.7 mph - N/A   Clear
1:54 PM 57.9 °F - 18.0 °F 21% 30.35 in 10.0 mi NE 12.7 mph - N/A   Clear
2:54 PM 57.9 °F - 19.0 °F 22% 30.38 in 10.0 mi NE 13.8 mph - N/A   Clear
3:54 PM 55.0 °F - 18.0 °F 23% 30.38 in 10.0 mi ENE 9.2 mph - N/A   Clear
4:54 PM 52.0 °F - 18.0 °F 26% 30.38 in 10.0 mi ENE 11.5 mph - N/A   Clear
5:54 PM 51.1 °F - 16.0 °F 25% 30.37 in 10.0 mi East 8.1 mph - N/A   Clear
6:54 PM 48.0 °F - 17.1 °F 29% 30.37 in 10.0 mi ENE 6.9 mph - N/A   Clear
7:54 PM 50.0 °F - 17.1 °F 27% 30.35 in 10.0 mi ENE 6.9 mph - N/A   Clear
8:54 PM 41.0 °F 38.0 °F 17.1 °F 38% 30.34 in 10.0 mi NE 4.6 mph - N/A   Clear
9:54 PM 44.1 °F 40.8 °F 18.0 °F 35% 30.31 in 10.0 mi East 5.8 mph - N/A   Clear
10:54 PM 46.9 °F - 19.0 °F 33% 30.27 in 10.0 mi ENE 5.8 mph - N/A   Clear
11:54 PM 46.9 °F - 19.0 °F 33% 30.25 in 10.0 mi East 5.8 mph - N/A   Clear